Lid_Strength_Index
7 10 12 10 9 9 10 11 12 10 8 10 10 10 9 8 7 7 7 6 6 5 4 3 3 2 2 2 2 2 2 4 5 5 6 6 4 5 7 8 8 7 7 7
9 12 9 7 8 9 10 12 12 10 8 10 11 11 9 9 8 7 6 8 6 5 5 4 3 3 3 2 2 2 3 4 5 5 4 4 4 7 7 7 7 7 7 6
12 9 7 8 10 11 11 12 12 12 9 9 11 12 11 9 9 7 6 6 6 6 6 5 4 3 3 3 2 3 4 5 4 4 4 4 5 7 7 8 7 7 6 6
10 7 9 10 11 10 14 9 10 11 13 16 11 16 13 11 9 8 7 7 6 6 6 5 4 4 4 3 2 2 2 4 4 4 4 5 6 8 8 8 7 7 6 6
11 10 10 11 10 9 12 9 10 11 13 15 13 15 13 10 10 9 8 7 7 6 5 5 4 4 3 2 2 2 2 4 4 4 4 5 7 7 5 7 8 7 7 6
10 7 8 9 8 8 8 10 11 11 13 19 14 15 15 14 12 10 8 7 6 6 5 5 4 3 3 3 2 2 2 3 3 4 5 5 6 6 6 8 8 7 8 6
11 10 8 7 10 8 10 13 19 20 20 19 14 16 15 11 10 9 9 8 7 7 7 7 5 5 4 3 3 2 2 3 2 3 5 5 6 6 7 9 8 7 8 6
15 16 10 8 9 11 12 13 18 22 22 20 14 18 15 10 8 7 7 7 7 7 7 7 6 5 5 4 3 2 2 2 3 4 4 4 7 7 8 7 6 7 6 6
14 14 9 8 8 9 12 15 12 17 16 19 17 14 11 9 9 8 8 9 8 8 6 6 6 6 6 5 4 4 3 4 5 6 6 8 8 8 8 7 8 6 7 6
11 15 10 8 8 8 11 10 16 16 21 22 16 15 14 12 11 9 10 8 8 7 7 6 6 5 4 5 7 6 6 7 7 7 8 7 7 7 7 8 8 8 7 8
11 13 13 11 11 12 12 13 13 14 16 20 20 16 10 11 10 11 11 10 9 9 8 8 8 8 9 9 8 8 8 9 8 7 7 8 8 8 8 7 8 8 8 8
10 13 16 13 9 9 11 12 12 17 18 16 17 16 10 9 9 10 10 9 9 9 9 9 9 9 10 10 9 9 9 8 8 9 9 8 9 10 8 9 9 9 9 8
10 14 17 15 13 11 13 12 12 12 13 17 19 17 11 11 10 10 11 10 9 9 9 10 10 10 10 10 9 9 8 9 9 9 9 9 10 9 11 10 10 9 9 9
7 12 14 17 15 13 14 13 13 13 17 16 16 15 13 12 11 11 11 10 10 10 10 10 11 11 10 9 10 10 10 9 10 9 9 10 11 10 10 10 10 9 10 11
11 14 13 12 12 11 12 11 11 13 15 17 15 15 13 12 11 11 10 10 10 10 10 10 10 11 11 11 12 12 11 11 10 10 10 10 10 10 10 10 10 11 11 10
12 14 12 13 11 11 13 11 11 12 12 13 12 13 11 9 9 10 10 10 10 10 9 9 9 10 10 10 10 10 10 10 10 10 10 9 9 9 10 10 10 10 10 9
14 14 14 16 12 12 14 12 12 13 12 13 15 12 11 11 10 10 10 9 9 9 9 9 10 10 10 10 10 11 11 10 10 10 9 10 10 10 10 10 10 10 10 10
14 14 13 16 13 18 13 11 11 12 11 11 11 11 10 11 11 11 10 9 9 9 9 10 10 10 10 10 10 10 10 11 10 11 11 11 10 10 10 10 10 10 10 10
13 13 15 17 16 13 13 12 13 13 13 11 11 10 10 10 11 11 9 8 9 9 9 10 10 10 10 10 10 10 10 11 11 11 11 10 10 10 10 10 10 10 10 9
12 13 15 16 18 19 13 11 10 12 17 11 10 11 11 10 13 13 10 9 10 9 9 9 10 10 10 10 10 10 11 12 11 11 10 10 10 10 10 10 10 10 10 9
15 15 17 17 19 13 11 10 10 16 15 11 10 10 10 12 11 11 9 10 10 9 10 10 10 11 11 10 10 12 12 11 10 10 9 10 10 10 10 10 11 11 11 10
15 17 17 16 18 17 9 10 13 11 11 10 10 10 11 11 10 10 10 11 10 11 10 10 11 11 11 11 12 12 12 10 10 10 10 10 11 9 9 11 11 11 11 12
16 14 15 14 13 10 10 10 9 8 9 10 10 10 10 11 11 10 11 11 11 11 10 10 11 11 11 12 11 12 11 10 10 10 11 11 10 10 10 11 12 12 13 13
14 12 13 13 12 11 10 9 9 8 9 8 8 8 9 10 10 11 11 11 11 10 10 10 10 11 12 11 11 10 10 10 11 12 12 11 10 10 11 11 12 13 13 13
14 14 13 13 11 11 10 10 9 8 7 8 8 8 8 9 10 10 11 11 11 10 10 10 11 12 12 11 10 10 10 11 11 12 12 11 10 12 12 12 12 12 12 10
14 14 15 14 11 12 11 9 8 9 9 8 8 8 8 9 9 10 11 11 11 10 10 11 12 11 11 11 11 11 11 11 12 12 11 10 11 12 13 13 13 9 9 9